Location: Helsinki
(60.1699°N, 24.9384°E)
Time: 11:46:29
(UTC+02:00)

Transit 2A Rocket - Pass Details

Date: 21 September 2023
Orbit: 593 x 903 km, 66.7° (Epoch: 06 December)

Event Time Altitude Azimuth Distance (km) Brightness Sun altitude
Rises 23:34:08 0° 306° (NW) 3,081 9.1 -26.3°
Reaches altitude 10° 23:36:33 10° 308° (NW) 2,114 8.1 -26.4°
Enters shadow 23:40:45 66° 333° (NNW) 702 4.9 -26.7°
Maximum altitude 23:41:18 78° 35° (NE) 657 - -26.7°
Drops below altitude 10° 23:45:43 10° 123° (ESE) 1,968 - -27.0°
Sets 23:47:55 0° 124° (SE) 2,849 - -27.1°
